owner,sensor,date,latitude,longitude,vertical_datum,sea_water_practical_salinity,qcFlag 
SCCF RECON,ioos:station:SCCF:13:1,2010-11-01T00:00:00Z,26.5255,-82.0032,2.42,26.0,1111122 
SCCF RECON,ioos:station:SCCF:13:1,2010-11-01T01:00:00Z,26.5255,-82.0032,2.47,26.57,1111122 
SCCF RECON,ioos:station:SCCF:13:1,2010-11-01T02:00:00Z,26.5255,-82.0032,2.52,28.8,1111122 
SCCF RECON,ioos:station:SCCF:13:1,2010-11-01T03:00:00Z,26.5255,-82.0032,2.53,29.97,1111122 
SCCF RECON,ioos:station:SCCF:13:1,2010-11-01T04:00:00Z,26.5255,-82.0032,2.5,30.36,1111122 
SCCF RECON,ioos:station:SCCF:13:1,2010-11-01T05:00:00Z,26.5255,-82.0032,2.41,30.84,1111122 
SCCF RECON,ioos:station:SCCF:13:1,2010-11-01T06:00:00Z,26.5255,-82.0032,2.34,29.33,1111122 
SCCF RECON,ioos:station:SCCF:13:1,2010-11-01T07:00:00Z,26.5255,-82.0032,2.29,27.26,1111122 
SCCF RECON,ioos:station:SCCF:13:1,2010-11-01T08:00:00Z,26.5255,-82.0032,2.245,24.75,1111122 
SCCF RECON,ioos:station:SCCF:13:1,2010-11-01T09:00:00Z,26.5255,-82.0032,2.27,23.63,1111122 
SCCF RECON,ioos:station:SCCF:13:1,2010-11-01T10:00:00Z,26.5255,-82.0032,2.352,23.31,1111122 
SCCF RECON,ioos:station:SCCF:13:1,2010-11-01T11:00:00Z,26.5255,-82.0032,2.44,24.56,1111122 
SCCF RECON,ioos:station:SCCF:13:1,2010-11-01T12:00:00Z,26.5255,-82.0032,2.5,28.12,1111122 
SCCF RECON,ioos:station:SCCF:13:1,2010-11-01T13:00:00Z,26.5255,-82.0032,2.55,28.2,1111122 
SCCF RECON,ioos:station:SCCF:13:1,2010-11-01T14:00:00Z,26.5255,-82.0032,2.58,29.52,1111122 
SCCF RECON,ioos:station:SCCF:13:1,2010-11-01T15:00:00Z,26.5255,-82.0032,2.568,30.29,1111122 
SCCF RECON,ioos:station:SCCF:13:1,2010-11-01T16:00:00Z,26.5255,-82.0032,2.498,30.92,1111122 
SCCF RECON,ioos:station:SCCF:13:1,2010-11-01T17:00:00Z,26.5255,-82.0032,2.397,30.51,1111122 
SCCF RECON,ioos:station:SCCF:13:1,2010-11-01T18:00:00Z,26.5255,-82.0032,2.3,27.95,1111122 
SCCF RECON,ioos:station:SCCF:13:1,2010-11-01T19:00:00Z,26.5255,-82.0032,2.231,25.52,1111122 
SCCF RECON,ioos:station:SCCF:13:1,2010-11-01T20:00:00Z,26.5255,-82.0032,2.171,24.94,1111122 
SCCF RECON,ioos:station:SCCF:13:1,2010-11-01T21:00:00Z,26.5255,-82.0032,2.159,24.27,1111122 
SCCF RECON,ioos:station:SCCF:13:1,2010-11-01T22:00:00Z,26.5255,-82.0032,2.241,23.44,1111122 
SCCF RECON,ioos:station:SCCF:13:1,2010-11-01T23:00:00Z,26.5255,-82.0032,2.35,23.68,1111122 
SCCF RECON,ioos:station:SCCF:13:1,2010-11-02T00:00:00Z,26.5255,-82.0032,2.42,25.6,1111122 
SCCF RECON,ioos:station:SCCF:13:1,2010-11-02T01:00:00Z,26.5255,-82.0032,2.488,26.86,1111122 
SCCF RECON,ioos:station:SCCF:13:1,2010-11-02T02:00:00Z,26.5255,-82.0032,2.559,28.45,1111122 
SCCF RECON,ioos:station:SCCF:13:1,2010-11-02T03:00:00Z,26.5255,-82.0032,2.581,30.09,1111122 
SCCF RECON,ioos:station:SCCF:13:1,2010-11-02T04:00:00Z,26.5255,-82.0032,2.55,30.96,1111122 
SCCF RECON,ioos:station:SCCF:13:1,2010-11-02T05:00:00Z,26.5255,-82.0032,2.47,31.09,1111122 
SCCF RECON,ioos:station:SCCF:13:1,2010-11-02T06:00:00Z,26.5255,-82.0032,2.36,30.72,1111122 
SCCF RECON,ioos:station:SCCF:13:1,2010-11-02T07:00:00Z,26.5255,-82.0032,2.279,27.62,1111122 
SCCF RECON,ioos:station:SCCF:13:1,2010-11-02T08:00:00Z,26.5255,-82.0032,2.19,25.47,1111122 
SCCF RECON,ioos:station:SCCF:13:1,2010-11-02T09:00:00Z,26.5255,-82.0032,2.13,25.31,1111122 
SCCF RECON,ioos:station:SCCF:13:1,2010-11-02T10:00:00Z,26.5255,-82.0032,2.14,24.21,1111122 
SCCF RECON,ioos:station:SCCF:13:1,2010-11-02T11:00:00Z,26.5255,-82.0032,2.24,23.51,1111122 
SCCF RECON,ioos:station:SCCF:13:1,2010-11-02T12:00:00Z,26.5255,-82.0032,2.34,23.49,1111122 
SCCF RECON,ioos:station:SCCF:13:1,2010-11-02T13:00:00Z,26.5255,-82.0032,2.405,25.77,1111122 
SCCF RECON,ioos:station:SCCF:13:1,2010-11-02T14:00:00Z,26.5255,-82.0032,2.461,27.27,1111122 
SCCF RECON,ioos:station:SCCF:13:1,2010-11-02T15:00:00Z,26.5255,-82.0032,2.498,28.69,1111122 
SCCF RECON,ioos:station:SCCF:13:1,2010-11-02T16:00:00Z,26.5255,-82.0032,2.498,30.36,1111122 
SCCF RECON,ioos:station:SCCF:13:1,2010-11-02T17:00:00Z,26.5255,-82.0032,2.44,30.98,1111122 
SCCF RECON,ioos:station:SCCF:13:1,2010-11-02T18:00:00Z,26.5255,-82.0032,2.34,31.25,1111122 
SCCF RECON,ioos:station:SCCF:13:1,2010-11-02T19:00:00Z,26.5255,-82.0032,2.249,29.02,1111122 
SCCF RECON,ioos:station:SCCF:13:1,2010-11-02T20:00:00Z,26.5255,-82.0032,2.19,25.54,1111122 
SCCF RECON,ioos:station:SCCF:13:1,2010-11-02T21:00:00Z,26.5255,-82.0032,2.14,24.72,1111122 
SCCF RECON,ioos:station:SCCF:13:1,2010-11-02T22:00:00Z,26.5255,-82.0032,2.15,24.33,1111122 
SCCF RECON,ioos:station:SCCF:13:1,2010-11-02T23:00:00Z,26.5255,-82.0032,2.272,23.45,1111122 
SCCF RECON,ioos:station:SCCF:13:1,2010-11-03T00:00:00Z,26.5255,-82.0032,2.38,25.97,1111122 
SCCF RECON,ioos:station:SCCF:13:1,2010-11-03T01:00:00Z,26.5255,-82.0032,2.45,27.88,1111122 
SCCF RECON,ioos:station:SCCF:13:1,2010-11-03T02:00:00Z,26.5255,-82.0032,2.52,29.3,1111122 
SCCF RECON,ioos:station:SCCF:13:1,2010-11-03T03:00:00Z,26.5255,-82.0032,2.594,31.31,1111122 
SCCF RECON,ioos:station:SCCF:13:1,2010-11-03T04:00:00Z,26.5255,-82.0032,2.614,32.06,1111122 
SCCF RECON,ioos:station:SCCF:13:1,2010-11-03T05:00:00Z,26.5255,-82.0032,2.53,32.09,1111122 
SCCF RECON,ioos:station:SCCF:13:1,2010-11-03T06:00:00Z,26.5255,-82.0032,2.4,32.03,1111122 
SCCF RECON,ioos:station:SCCF:13:1,2010-11-03T07:00:00Z,26.5255,-82.0032,2.31,30.84,1111122 
SCCF RECON,ioos:station:SCCF:13:1,2010-11-03T08:00:00Z,26.5255,-82.0032,2.223,27.95,1111122 
SCCF RECON,ioos:station:SCCF:13:1,2010-11-03T09:00:00Z,26.5255,-82.0032,2.14,26.75,1111122 
SCCF RECON,ioos:station:SCCF:13:1,2010-11-03T10:00:00Z,26.5255,-82.0032,2.08,25.89,1111122 
SCCF RECON,ioos:station:SCCF:13:1,2010-11-03T11:00:00Z,26.5255,-82.0032,2.111,24.9,1111122 
SCCF RECON,ioos:station:SCCF:13:1,2010-11-03T12:00:00Z,26.5255,-82.0032,2.24,24.24,1111122 
SCCF RECON,ioos:station:SCCF:13:1,2010-11-03T13:00:00Z,26.5255,-82.0032,2.34,24.91,1111122 
SCCF RECON,ioos:station:SCCF:13:1,2010-11-03T14:00:00Z,26.5255,-82.0032,2.404,27.5,1111122 
SCCF RECON,ioos:station:SCCF:13:1,2010-11-03T15:00:00Z,26.5255,-82.0032,2.467,28.39,1111122 
SCCF RECON,ioos:station:SCCF:13:1,2010-11-03T16:00:00Z,26.5255,-82.0032,2.521,30.89,1111122 
SCCF RECON,ioos:station:SCCF:13:1,2010-11-03T17:00:00Z,26.5255,-82.0032,2.528,31.64,1111122 
SCCF RECON,ioos:station:SCCF:13:1,2010-11-03T18:00:00Z,26.5255,-82.0032,2.451,31.71,1111122 
SCCF RECON,ioos:station:SCCF:13:1,2010-11-03T19:00:00Z,26.5255,-82.0032,2.352,31.87,1111122 
SCCF RECON,ioos:station:SCCF:13:1,2010-11-03T20:00:00Z,26.5255,-82.0032,2.31,31.72,1111122 
SCCF RECON,ioos:station:SCCF:13:1,2010-11-03T21:00:00Z,26.5255,-82.0032,2.25,31.05,1111122 
SCCF RECON,ioos:station:SCCF:13:1,2010-11-03T22:00:00Z,26.5255,-82.0032,2.238,29.7,1111122 
SCCF RECON,ioos:station:SCCF:13:1,2010-11-03T23:00:00Z,26.5255,-82.0032,2.29,28.5,1111122 
SCCF RECON,ioos:station:SCCF:13:1,2010-11-04T00:00:00Z,26.5255,-82.0032,2.43,28.33,1111122 
SCCF RECON,ioos:station:SCCF:13:1,2010-11-04T01:00:00Z,26.5255,-82.0032,2.49,30.39,1111122 
SCCF RECON,ioos:station:SCCF:13:1,2010-11-04T02:00:00Z,26.5255,-82.0032,2.563,30.44,1111122 
SCCF RECON,ioos:station:SCCF:13:1,2010-11-04T03:00:00Z,26.5255,-82.0032,2.62,31.69,1111122 
SCCF RECON,ioos:station:SCCF:13:1,2010-11-04T04:00:00Z,26.5255,-82.0032,2.657,32.39,1111122 
SCCF RECON,ioos:station:SCCF:13:1,2010-11-04T05:00:00Z,26.5255,-82.0032,2.649,32.64,1111122 
SCCF RECON,ioos:station:SCCF:13:1,2010-11-04T06:00:00Z,26.5255,-82.0032,2.546,32.72,1111122 
SCCF RECON,ioos:station:SCCF:13:1,2010-11-04T07:00:00Z,26.5255,-82.0032,2.489,32.29,1111122 
SCCF RECON,ioos:station:SCCF:13:1,2010-11-04T08:00:00Z,26.5255,-82.0032,2.35,32.0,1111122 
SCCF RECON,ioos:station:SCCF:13:1,2010-11-04T09:00:00Z,26.5255,-82.0032,2.24,30.92,1111122 
SCCF RECON,ioos:station:SCCF:13:1,2010-11-04T10:00:00Z,26.5255,-82.0032,2.16,29.65,1111122 
SCCF RECON,ioos:station:SCCF:13:1,2010-11-04T11:00:00Z,26.5255,-82.0032,2.09,29.12,1111122 
SCCF RECON,ioos:station:SCCF:13:1,2010-11-04T12:00:00Z,26.5255,-82.0032,2.159,28.44,1111122 
SCCF RECON,ioos:station:SCCF:13:1,2010-11-04T13:00:00Z,26.5255,-82.0032,2.33,27.51,1111122 
SCCF RECON,ioos:station:SCCF:13:1,2010-11-04T14:00:00Z,26.5255,-82.0032,2.43,28.95,1111122 
SCCF RECON,ioos:station:SCCF:13:1,2010-11-04T15:00:00Z,26.5255,-82.0032,2.508,29.71,1111122 
SCCF RECON,ioos:station:SCCF:13:1,2010-11-04T16:00:00Z,26.5255,-82.0032,2.584,31.17,1111122 
SCCF RECON,ioos:station:SCCF:13:1,2010-11-04T17:00:00Z,26.5255,-82.0032,2.644,32.15,1111122 
SCCF RECON,ioos:station:SCCF:13:1,2010-11-04T18:00:00Z,26.5255,-82.0032,2.646,32.17,1111122 
SCCF RECON,ioos:station:SCCF:13:1,2010-11-04T19:00:00Z,26.5255,-82.0032,2.579,32.43,1111122 
SCCF RECON,ioos:station:SCCF:13:1,2010-11-04T20:00:00Z,26.5255,-82.0032,2.512,32.48,1111122 
SCCF RECON,ioos:station:SCCF:13:1,2010-11-04T21:00:00Z,26.5255,-82.0032,2.44,32.4,1111122 
SCCF RECON,ioos:station:SCCF:13:1,2010-11-04T22:00:00Z,26.5255,-82.0032,2.368,31.6,1111122 
SCCF RECON,ioos:station:SCCF:13:1,2010-11-04T23:00:00Z,26.5255,-82.0032,2.396,31.28,1111122 
SCCF RECON,ioos:station:SCCF:13:1,2010-11-05T00:00:00Z,26.5255,-82.0032,2.47,30.31,1111122 
SCCF RECON,ioos:station:SCCF:13:1,2010-11-05T01:00:00Z,26.5255,-82.0032,2.58,30.96,1111122 
SCCF RECON,ioos:station:SCCF:13:1,2010-11-05T02:00:00Z,26.5255,-82.0032,2.663,31.32,1111122 
SCCF RECON,ioos:station:SCCF:13:1,2010-11-05T03:00:00Z,26.5255,-82.0032,2.73,31.58,1111122 
SCCF RECON,ioos:station:SCCF:13:1,2010-11-05T04:00:00Z,26.5255,-82.0032,2.79,32.35,1111122 
SCCF RECON,ioos:station:SCCF:13:1,2010-11-05T05:00:00Z,26.5255,-82.0032,2.81,32.67,1111122 
SCCF RECON,ioos:station:SCCF:13:1,2010-11-05T06:00:00Z,26.5255,-82.0032,2.75,32.8,1111122 
SCCF RECON,ioos:station:SCCF:13:1,2010-11-05T07:00:00Z,26.5255,-82.0032,2.63,32.84,1111122 
SCCF RECON,ioos:station:SCCF:13:1,2010-11-05T08:00:00Z,26.5255,-82.0032,2.51,32.37,1111122 
SCCF RECON,ioos:station:SCCF:13:1,2010-11-05T09:00:00Z,26.5255,-82.0032,2.387,32.17,1111122 
SCCF RECON,ioos:station:SCCF:13:1,2010-11-05T10:00:00Z,26.5255,-82.0032,2.269,31.12,1111122 
SCCF RECON,ioos:station:SCCF:13:1,2010-11-05T11:00:00Z,26.5255,-82.0032,2.175,30.13,1111122 
SCCF RECON,ioos:station:SCCF:13:1,2010-11-05T12:00:00Z,26.5255,-82.0032,2.099,27.65,1111122 
SCCF RECON,ioos:station:SCCF:13:1,2010-11-05T13:00:00Z,26.5255,-82.0032,2.061,26.31,1111122 
SCCF RECON,ioos:station:SCCF:13:1,2010-11-05T14:00:00Z,26.5255,-82.0032,2.124,25.25,1111122 
SCCF RECON,ioos:station:SCCF:13:1,2010-11-05T15:00:00Z,26.5255,-82.0032,2.196,24.56,1111122 
SCCF RECON,ioos:station:SCCF:13:1,2010-11-05T16:00:00Z,26.5255,-82.0032,2.26,24.08,1111122 
SCCF RECON,ioos:station:SCCF:13:1,2010-11-05T17:00:00Z,26.5255,-82.0032,2.35,24.3,1111122 
SCCF RECON,ioos:station:SCCF:13:1,2010-11-05T18:00:00Z,26.5255,-82.0032,2.36,24.68,1111122 
SCCF RECON,ioos:station:SCCF:13:1,2010-11-05T19:00:00Z,26.5255,-82.0032,2.273,25.31,1111122 
SCCF RECON,ioos:station:SCCF:13:1,2010-11-05T20:00:00Z,26.5255,-82.0032,2.2,24.67,1111122 
SCCF RECON,ioos:station:SCCF:13:1,2010-11-05T21:00:00Z,26.5255,-82.0032,2.14,23.58,1111122 
SCCF RECON,ioos:station:SCCF:13:1,2010-11-05T22:00:00Z,26.5255,-82.0032,2.11,22.84,1111122 
SCCF RECON,ioos:station:SCCF:13:1,2010-11-05T23:00:00Z,26.5255,-82.0032,2.09,21.89,1111122 
SCCF RECON,ioos:station:SCCF:13:1,2010-11-06T00:00:00Z,26.5255,-82.0032,2.11,21.7,1111122 
SCCF RECON,ioos:station:SCCF:13:1,2010-11-06T01:00:00Z,26.5255,-82.0032,2.23,21.75,1111122 
SCCF RECON,ioos:station:SCCF:13:1,2010-11-06T02:00:00Z,26.5255,-82.0032,2.37,23.28,1111122 
SCCF RECON,ioos:station:SCCF:13:1,2010-11-06T03:00:00Z,26.5255,-82.0032,2.48,24.44,1111122 
SCCF RECON,ioos:station:SCCF:13:1,2010-11-06T04:00:00Z,26.5255,-82.0032,2.561,26.87,1111122 
SCCF RECON,ioos:station:SCCF:13:1,2010-11-06T05:00:00Z,26.5255,-82.0032,2.587,28.71,1111122 
SCCF RECON,ioos:station:SCCF:13:1,2010-11-06T06:00:00Z,26.5255,-82.0032,2.539,29.44,1111122 
SCCF RECON,ioos:station:SCCF:13:1,2010-11-06T07:00:00Z,26.5255,-82.0032,2.411,29.36,1111122 
SCCF RECON,ioos:station:SCCF:13:1,2010-11-06T08:00:00Z,26.5255,-82.0032,2.3,28.85,1111122 
SCCF RECON,ioos:station:SCCF:13:1,2010-11-06T09:00:00Z,26.5255,-82.0032,2.22,27.19,1111122 
SCCF RECON,ioos:station:SCCF:13:1,2010-11-06T10:00:00Z,26.5255,-82.0032,2.14,25.37,1111122 
SCCF RECON,ioos:station:SCCF:13:1,2010-11-06T11:00:00Z,26.5255,-82.0032,2.05,24.08,1111122 
SCCF RECON,ioos:station:SCCF:13:1,2010-11-06T12:00:00Z,26.5255,-82.0032,1.979,22.82,1111122 
SCCF RECON,ioos:station:SCCF:13:1,2010-11-06T13:00:00Z,26.5255,-82.0032,1.93,21.88,1111122 
SCCF RECON,ioos:station:SCCF:13:1,2010-11-06T14:00:00Z,26.5255,-82.0032,1.955,20.77,1111122 
SCCF RECON,ioos:station:SCCF:13:1,2010-11-06T15:00:00Z,26.5255,-82.0032,2.07,20.08,1111122 
SCCF RECON,ioos:station:SCCF:13:1,2010-11-06T16:00:00Z,26.5255,-82.0032,2.16,19.91,1111122 
SCCF RECON,ioos:station:SCCF:13:1,2010-11-06T17:00:00Z,26.5255,-82.0032,2.228,20.31,1111122 
SCCF RECON,ioos:station:SCCF:13:1,2010-11-06T18:00:00Z,26.5255,-82.0032,2.28,22.21,1111122 
SCCF RECON,ioos:station:SCCF:13:1,2010-11-06T19:00:00Z,26.5255,-82.0032,2.274,23.83,1111122 
SCCF RECON,ioos:station:SCCF:13:1,2010-11-06T20:00:00Z,26.5255,-82.0032,2.23,24.58,1111122 
SCCF RECON,ioos:station:SCCF:13:1,2010-11-06T21:00:00Z,26.5255,-82.0032,2.169,25.55,1111122 
SCCF RECON,ioos:station:SCCF:13:1,2010-11-06T22:00:00Z,26.5255,-82.0032,2.133,24.45,1111122 
SCCF RECON,ioos:station:SCCF:13:1,2010-11-06T23:00:00Z,26.5255,-82.0032,2.12,22.44,1111122 
SCCF RECON,ioos:station:SCCF:13:1,2010-11-07T00:00:00Z,26.5255,-82.0032,2.12,21.2,1111122 
SCCF RECON,ioos:station:SCCF:13:1,2010-11-07T01:00:00Z,26.5255,-82.0032,2.18,20.71,1111122 
SCCF RECON,ioos:station:SCCF:13:1,2010-11-07T02:00:00Z,26.5255,-82.0032,2.28,22.69,1111122 
SCCF RECON,ioos:station:SCCF:13:1,2010-11-07T03:00:00Z,26.5255,-82.0032,2.38,24.43,1111122 
SCCF RECON,ioos:station:SCCF:13:1,2010-11-07T04:00:00Z,26.5255,-82.0032,2.47,25.98,1111122 
SCCF RECON,ioos:station:SCCF:13:1,2010-11-07T05:00:00Z,26.5255,-82.0032,2.518,26.91,1111122 
SCCF RECON,ioos:station:SCCF:13:1,2010-11-07T06:00:00Z,26.5255,-82.0032,2.51,28.08,1111122 
SCCF RECON,ioos:station:SCCF:13:1,2010-11-07T07:00:00Z,26.5255,-82.0032,2.4,28.72,1111122 
SCCF RECON,ioos:station:SCCF:13:1,2010-11-07T08:00:00Z,26.5255,-82.0032,2.284,28.86,1111122 
SCCF RECON,ioos:station:SCCF:13:1,2010-11-07T09:00:00Z,26.5255,-82.0032,2.198,26.72,1111122 
SCCF RECON,ioos:station:SCCF:13:1,2010-11-07T10:00:00Z,26.5255,-82.0032,2.125,25.03,1111122 
SCCF RECON,ioos:station:SCCF:13:1,2010-11-07T11:00:00Z,26.5255,-82.0032,2.032,23.44,1111122 
SCCF RECON,ioos:station:SCCF:13:1,2010-11-07T12:00:00Z,26.5255,-82.0032,1.957,22.12,1111122 
SCCF RECON,ioos:station:SCCF:13:1,2010-11-07T13:00:00Z,26.5255,-82.0032,1.881,20.64,1111122 
SCCF RECON,ioos:station:SCCF:13:1,2010-11-07T14:00:00Z,26.5255,-82.0032,1.84,19.78,1111122 
SCCF RECON,ioos:station:SCCF:13:1,2010-11-07T15:00:00Z,26.5255,-82.0032,1.92,18.92,1111122 
SCCF RECON,ioos:station:SCCF:13:1,2010-11-07T16:00:00Z,26.5255,-82.0032,2.06,18.57,1111122 
SCCF RECON,ioos:station:SCCF:13:1,2010-11-07T17:00:00Z,26.5255,-82.0032,2.159,18.79,1111122 
SCCF RECON,ioos:station:SCCF:13:1,2010-11-07T18:00:00Z,26.5255,-82.0032,2.21,21.69,1111122 
SCCF RECON,ioos:station:SCCF:13:1,2010-11-07T19:00:00Z,26.5255,-82.0032,2.251,22.78,1111122 
SCCF RECON,ioos:station:SCCF:13:1,2010-11-07T20:00:00Z,26.5255,-82.0032,2.272,26.68,1111122 
SCCF RECON,ioos:station:SCCF:13:1,2010-11-07T21:00:00Z,26.5255,-82.0032,2.269,28.14,1111122 
SCCF RECON,ioos:station:SCCF:13:1,2010-11-07T22:00:00Z,26.5255,-82.0032,2.243,28.02,1111122 
SCCF RECON,ioos:station:SCCF:13:1,2010-11-07T23:00:00Z,26.5255,-82.0032,2.23,27.87,1111122 
SCCF RECON,ioos:station:SCCF:13:1,2010-11-08T00:00:00Z,26.5255,-82.0032,2.21,28.09,1111122 
SCCF RECON,ioos:station:SCCF:13:1,2010-11-08T01:00:00Z,26.5255,-82.0032,2.22,27.98,1111122 
SCCF RECON,ioos:station:SCCF:13:1,2010-11-08T02:00:00Z,26.5255,-82.0032,2.26,27.97,1111122 
SCCF RECON,ioos:station:SCCF:13:1,2010-11-08T03:00:00Z,26.5255,-82.0032,2.34,27.52,1111122 
SCCF RECON,ioos:station:SCCF:13:1,2010-11-08T04:00:00Z,26.5255,-82.0032,2.43,27.17,1111122 
SCCF RECON,ioos:station:SCCF:13:1,2010-11-08T05:00:00Z,26.5255,-82.0032,2.49,28.26,1111122 
SCCF RECON,ioos:station:SCCF:13:1,2010-11-08T06:00:00Z,26.5255,-82.0032,2.505,28.85,1111122 
SCCF RECON,ioos:station:SCCF:13:1,2010-11-08T07:00:00Z,26.5255,-82.0032,2.45,29.41,1111122 
SCCF RECON,ioos:station:SCCF:13:1,2010-11-08T08:00:00Z,26.5255,-82.0032,2.359,29.82,1111122 
SCCF RECON,ioos:station:SCCF:13:1,2010-11-08T09:00:00Z,26.5255,-82.0032,2.26,29.17,1111122 
SCCF RECON,ioos:station:SCCF:13:1,2010-11-08T10:00:00Z,26.5255,-82.0032,2.16,26.0,1111122 
SCCF RECON,ioos:station:SCCF:13:1,2010-11-08T11:00:00Z,26.5255,-82.0032,2.075,23.23,1111122 
SCCF RECON,ioos:station:SCCF:13:1,2010-11-08T12:00:00Z,26.5255,-82.0032,2.0,23.12,1111122 
SCCF RECON,ioos:station:SCCF:13:1,2010-11-08T13:00:00Z,26.5255,-82.0032,1.92,22.01,1111122 
SCCF RECON,ioos:station:SCCF:13:1,2010-11-08T14:00:00Z,26.5255,-82.0032,1.868,21.33,1111122 
SCCF RECON,ioos:station:SCCF:13:1,2010-11-08T15:00:00Z,26.5255,-82.0032,1.862,20.17,1111122 
SCCF RECON,ioos:station:SCCF:13:1,2010-11-08T16:00:00Z,26.5255,-82.0032,1.985,19.46,1111122 
SCCF RECON,ioos:station:SCCF:13:1,2010-11-08T17:00:00Z,26.5255,-82.0032,2.11,18.98,1111122 
SCCF RECON,ioos:station:SCCF:13:1,2010-11-08T18:00:00Z,26.5255,-82.0032,2.19,21.63,1111122 
SCCF RECON,ioos:station:SCCF:13:1,2010-11-08T19:00:00Z,26.5255,-82.0032,2.25,23.61,1111122 
SCCF RECON,ioos:station:SCCF:13:1,2010-11-08T20:00:00Z,26.5255,-82.0032,2.3,26.32,1111122 
SCCF RECON,ioos:station:SCCF:13:1,2010-11-08T21:00:00Z,26.5255,-82.0032,2.32,28.62,1111122 
SCCF RECON,ioos:station:SCCF:13:1,2010-11-08T22:00:00Z,26.5255,-82.0032,2.3,28.36,1111122 
SCCF RECON,ioos:station:SCCF:13:1,2010-11-08T23:00:00Z,26.5255,-82.0032,2.288,28.31,1111122 
SCCF RECON,ioos:station:SCCF:13:1,2010-11-09T00:00:00Z,26.5255,-82.0032,2.28,28.53,1111122 
SCCF RECON,ioos:station:SCCF:13:1,2010-11-09T01:00:00Z,26.5255,-82.0032,2.29,28.65,1111122 
SCCF RECON,ioos:station:SCCF:13:1,2010-11-09T02:00:00Z,26.5255,-82.0032,2.33,28.53,1111122 
SCCF RECON,ioos:station:SCCF:13:1,2010-11-09T03:00:00Z,26.5255,-82.0032,2.41,28.45,1111122 
SCCF RECON,ioos:station:SCCF:13:1,2010-11-09T04:00:00Z,26.5255,-82.0032,2.5,28.51,1111122 
SCCF RECON,ioos:station:SCCF:13:1,2010-11-09T05:00:00Z,26.5255,-82.0032,2.589,29.18,1111122 
SCCF RECON,ioos:station:SCCF:13:1,2010-11-09T06:00:00Z,26.5255,-82.0032,2.647,29.92,1111122 
SCCF RECON,ioos:station:SCCF:13:1,2010-11-09T07:00:00Z,26.5255,-82.0032,2.67,30.35,1111122 
SCCF RECON,ioos:station:SCCF:13:1,2010-11-09T08:00:00Z,26.5255,-82.0032,2.65,30.71,1111122 
SCCF RECON,ioos:station:SCCF:13:1,2010-11-09T09:00:00Z,26.5255,-82.0032,2.55,30.83,1111122 
SCCF RECON,ioos:station:SCCF:13:1,2010-11-09T10:00:00Z,26.5255,-82.0032,2.44,30.71,1111122 
SCCF RECON,ioos:station:SCCF:13:1,2010-11-09T11:00:00Z,26.5255,-82.0032,2.358,29.57,1111122 
SCCF RECON,ioos:station:SCCF:13:1,2010-11-09T12:00:00Z,26.5255,-82.0032,2.272,28.06,1111122 
SCCF RECON,ioos:station:SCCF:13:1,2010-11-09T13:00:00Z,26.5255,-82.0032,2.181,26.92,1111122 
SCCF RECON,ioos:station:SCCF:13:1,2010-11-09T14:00:00Z,26.5255,-82.0032,2.101,24.99,1111122 
SCCF RECON,ioos:station:SCCF:13:1,2010-11-09T15:00:00Z,26.5255,-82.0032,2.05,24.25,1111122 
SCCF RECON,ioos:station:SCCF:13:1,2010-11-09T16:00:00Z,26.5255,-82.0032,2.061,23.14,1111122 
SCCF RECON,ioos:station:SCCF:13:1,2010-11-09T17:00:00Z,26.5255,-82.0032,2.17,22.32,1111122 
SCCF RECON,ioos:station:SCCF:13:1,2010-11-09T18:00:00Z,26.5255,-82.0032,2.25,21.93,1111122 
SCCF RECON,ioos:station:SCCF:13:1,2010-11-09T19:00:00Z,26.5255,-82.0032,2.295,23.47,1111122 
SCCF RECON,ioos:station:SCCF:13:1,2010-11-09T20:00:00Z,26.5255,-82.0032,2.33,25.38,1111122 
SCCF RECON,ioos:station:SCCF:13:1,2010-11-09T21:00:00Z,26.5255,-82.0032,2.363,26.51,1111122 
SCCF RECON,ioos:station:SCCF:13:1,2010-11-09T22:00:00Z,26.5255,-82.0032,2.363,27.97,1111122 
SCCF RECON,ioos:station:SCCF:13:1,2010-11-09T23:00:00Z,26.5255,-82.0032,2.34,28.37,1111122 
SCCF RECON,ioos:station:SCCF:13:1,2010-11-10T00:00:00Z,26.5255,-82.0032,2.33,28.98,1111122 
SCCF RECON,ioos:station:SCCF:13:1,2010-11-10T01:00:00Z,26.5255,-82.0032,2.33,29.27,1111122 
SCCF RECON,ioos:station:SCCF:13:1,2010-11-10T02:00:00Z,26.5255,-82.0032,2.33,29.19,1111122 
SCCF RECON,ioos:station:SCCF:13:1,2010-11-10T03:00:00Z,26.5255,-82.0032,2.36,28.32,1111122 
SCCF RECON,ioos:station:SCCF:13:1,2010-11-10T04:00:00Z,26.5255,-82.0032,2.43,28.4,1111122 
SCCF RECON,ioos:station:SCCF:13:1,2010-11-10T05:00:00Z,26.5255,-82.0032,2.51,28.08,1111122 
SCCF RECON,ioos:station:SCCF:13:1,2010-11-10T06:00:00Z,26.5255,-82.0032,2.578,28.14,1111122 
SCCF RECON,ioos:station:SCCF:13:1,2010-11-10T07:00:00Z,26.5255,-82.0032,2.62,29.61,1111122 
SCCF RECON,ioos:station:SCCF:13:1,2010-11-10T08:00:00Z,26.5255,-82.0032,2.65,30.22,1111122 
SCCF RECON,ioos:station:SCCF:13:1,2010-11-10T09:00:00Z,26.5255,-82.0032,2.639,30.77,1111122 
SCCF RECON,ioos:station:SCCF:13:1,2010-11-10T10:00:00Z,26.5255,-82.0032,2.55,31.16,1111122 
SCCF RECON,ioos:station:SCCF:13:1,2010-11-10T11:00:00Z,26.5255,-82.0032,2.45,30.64,1111122 
SCCF RECON,ioos:station:SCCF:13:1,2010-11-10T12:00:00Z,26.5255,-82.0032,2.37,28.22,1111122 
SCCF RECON,ioos:station:SCCF:13:1,2010-11-10T13:00:00Z,26.5255,-82.0032,2.3,26.36,1111122 
SCCF RECON,ioos:station:SCCF:13:1,2010-11-10T14:00:00Z,26.5255,-82.0032,2.22,24.82,1111122 
SCCF RECON,ioos:station:SCCF:13:1,2010-11-10T15:00:00Z,26.5255,-82.0032,2.149,24.25,1111122 
SCCF RECON,ioos:station:SCCF:13:1,2010-11-10T16:00:00Z,26.5255,-82.0032,2.115,24.02,1111122 
SCCF RECON,ioos:station:SCCF:13:1,2010-11-10T17:00:00Z,26.5255,-82.0032,2.179,23.12,1111122 
SCCF RECON,ioos:station:SCCF:13:1,2010-11-10T18:00:00Z,26.5255,-82.0032,2.29,22.47,1111122 
SCCF RECON,ioos:station:SCCF:13:1,2010-11-10T19:00:00Z,26.5255,-82.0032,2.351,23.01,1111122 
SCCF RECON,ioos:station:SCCF:13:1,2010-11-10T20:00:00Z,26.5255,-82.0032,2.39,25.05,1111122 
SCCF RECON,ioos:station:SCCF:13:1,2010-11-10T21:00:00Z,26.5255,-82.0032,2.429,26.42,1111122 
SCCF RECON,ioos:station:SCCF:13:1,2010-11-10T22:00:00Z,26.5255,-82.0032,2.46,28.02,1111122 
SCCF RECON,ioos:station:SCCF:13:1,2010-11-10T23:00:00Z,26.5255,-82.0032,2.46,29.27,1111122 
SCCF RECON,ioos:station:SCCF:13:1,2010-11-11T00:00:00Z,26.5255,-82.0032,2.44,29.5,1111122 
SCCF RECON,ioos:station:SCCF:13:1,2010-11-11T01:00:00Z,26.5255,-82.0032,2.431,29.46,1111122 
SCCF RECON,ioos:station:SCCF:13:1,2010-11-11T02:00:00Z,26.5255,-82.0032,2.43,29.73,1111122 
SCCF RECON,ioos:station:SCCF:13:1,2010-11-11T03:00:00Z,26.5255,-82.0032,2.41,29.59,1111122 
SCCF RECON,ioos:station:SCCF:13:1,2010-11-11T04:00:00Z,26.5255,-82.0032,2.44,28.74,1111122 
SCCF RECON,ioos:station:SCCF:13:1,2010-11-11T05:00:00Z,26.5255,-82.0032,2.5,28.68,1111122 
SCCF RECON,ioos:station:SCCF:13:1,2010-11-11T06:00:00Z,26.5255,-82.0032,2.563,29.11,1111122 
SCCF RECON,ioos:station:SCCF:13:1,2010-11-11T07:00:00Z,26.5255,-82.0032,2.61,28.94,1111122 
SCCF RECON,ioos:station:SCCF:13:1,2010-11-11T08:00:00Z,26.5255,-82.0032,2.632,28.95,1111122 
SCCF RECON,ioos:station:SCCF:13:1,2010-11-11T09:00:00Z,26.5255,-82.0032,2.63,29.79,1111122 
SCCF RECON,ioos:station:SCCF:13:1,2010-11-11T10:00:00Z,26.5255,-82.0032,2.59,30.24,1111122 
SCCF RECON,ioos:station:SCCF:13:1,2010-11-11T11:00:00Z,26.5255,-82.0032,2.53,30.31,1111122 
SCCF RECON,ioos:station:SCCF:13:1,2010-11-11T12:00:00Z,26.5255,-82.0032,2.45,28.9,1111122 
SCCF RECON,ioos:station:SCCF:13:1,2010-11-11T13:00:00Z,26.5255,-82.0032,2.371,25.02,1111122 
SCCF RECON,ioos:station:SCCF:13:1,2010-11-11T14:00:00Z,26.5255,-82.0032,2.3,25.02,1111122 
SCCF RECON,ioos:station:SCCF:13:1,2010-11-11T15:00:00Z,26.5255,-82.0032,2.227,23.44,1111122 
SCCF RECON,ioos:station:SCCF:13:1,2010-11-11T16:00:00Z,26.5255,-82.0032,2.166,23.07,1111122 
SCCF RECON,ioos:station:SCCF:13:1,2010-11-11T17:00:00Z,26.5255,-82.0032,2.16,23.05,1111122 
SCCF RECON,ioos:station:SCCF:13:1,2010-11-11T18:00:00Z,26.5255,-82.0032,2.238,22.19,1111122 